Location: Cointrin
(46.2167°N, 6.1167°E)
Time: 19:45:19
(UTC+00:00)

RESURS DK-1 - Pass Details

Date: 08 February 2023
Orbit: 549 x 557 km, 69.9° (Epoch: 21 March)

Event Time Altitude Azimuth Distance (km) Brightness Sun altitude
Rises 17:57:27 0° 323° (NW) 2,741 6.3 -12.0°
Reaches altitude 10° 17:59:50 10° 313° (NW) 1,844 5.5 -12.4°
Maximum altitude 18:03:27 31° 251° (WSW) 998 4.4 -13.0°
Drops below altitude 10° 18:07:04 10° 189° (S) 1,835 5.2 -13.7°
Sets 18:09:26 0° 179° (S) 2,726 5.9 -14.1°
